QPF
0.01 0.01 0.01 0.01 0.01 0.00 0.00 0.00 0.00 0.00 0.00 0.00 0.00 0.00 0.00 0.00 0.00 0.01 0.00 0.00 0.01 0.01 0.00 0.01 0.01 0.01 0.02 0.01 0.01 0.01 0.03 0.04 0.04 0.03 0.03 0.03 0.04 0.04 0.04 0.03 0.04 0.05 0.06 0.05
0.00 0.00 0.01 0.00 0.00 0.00 0.00 0.00 0.00 0.00 0.00 0.00 0.00 0.00 0.00 0.00 0.00 0.00 0.00 0.00 0.00 0.01 0.00 0.00 0.01 0.01 0.02 0.01 0.01 0.02 0.03 0.03 0.04 0.04 0.03 0.03 0.04 0.03 0.02 0.02 0.04 0.05 0.06 0.04
0.00 0.00 0.00 0.00 0.00 0.00 0.00 0.00 0.00 0.00 0.00 0.00 0.00 0.00 0.00 0.00 0.00 0.00 0.00 0.00 0.00 0.00 0.01 0.00 0.00 0.01 0.02 0.03 0.03 0.03 0.03 0.04 0.05 0.05 0.03 0.02 0.02 0.02 0.02 0.03 0.04 0.04 0.04 0.06
0.00 0.00 0.00 0.00 0.00 0.00 0.00 0.00 0.00 0.00 0.00 0.00 0.00 0.01 0.01 0.00 0.00 0.00 0.00 0.00 0.00 0.00 0.00 0.00 0.00 0.00 0.02 0.03 0.03 0.03 0.03 0.05 0.06 0.05 0.03 0.02 0.02 0.02 0.02 0.03 0.04 0.04 0.03 0.03
0.00 0.00 0.00 0.00 0.00 0.00 0.00 0.00 0.00 0.00 0.00 0.00 0.00 0.01 0.01 0.01 0.01 0.01 0.01 0.01 0.00 0.00 0.01 0.00 0.00 0.00 0.01 0.01 0.02 0.03 0.04 0.05 0.04 0.03 0.03 0.03 0.02 0.03 0.03 0.03 0.04 0.04 0.05 0.04
0.00 0.00 0.00 0.00 0.00 0.00 0.00 0.00 0.00 0.00 0.00 0.01 0.00 0.00 0.01 0.00 0.00 0.00 0.00 0.00 0.00 0.00 0.00 0.00 0.00 0.00 0.00 0.01 0.02 0.03 0.04 0.04 0.03 0.02 0.03 0.03 0.03 0.03 0.04 0.03 0.04 0.04 0.04 0.03
0.00 0.01 0.00 0.00 0.00 0.00 0.00 0.01 0.01 0.01 0.01 0.01 0.00 0.00 0.00 0.00 0.00 0.00 0.00 0.00 0.00 0.00 0.00 0.00 0.00 0.00 0.01 0.01 0.02 0.02 0.02 0.02 0.01 0.02 0.02 0.03 0.05 0.05 0.04 0.04 0.04 0.04 0.04 0.04
0.00 0.01 0.00 0.00 0.00 0.00 0.01 0.01 0.02 0.02 0.01 0.00 0.00 0.00 0.00 0.00 0.00 0.00 0.00 0.00 0.00 0.00 0.00 0.01 0.01 0.01 0.01 0.01 0.01 0.00 0.00 0.01 0.01 0.01 0.02 0.02 0.03 0.04 0.04 0.04 0.04 0.04 0.03 0.03
0.00 0.00 0.00 0.00 0.00 0.00 0.01 0.01 0.00 0.01 0.00 0.00 0.00 0.00 0.00 0.00 0.00 0.00 0.00 0.00 0.00 0.00 0.01 0.01 0.01 0.01 0.01 0.01 0.00 0.00 0.00 0.00 0.00 0.01 0.01 0.01 0.02 0.02 0.03 0.04 0.04 0.03 0.03 0.03
0.00 0.00 0.00 0.00 0.01 0.00 0.00 0.00 0.01 0.00 0.01 0.01 0.00 0.00 0.00 0.00 0.00 0.00 0.00 0.00 0.00 0.00 0.01 0.01 0.01 0.02 0.02 0.01 0.01 0.00 0.00 0.00 0.00 0.01 0.02 0.02 0.02 0.02 0.02 0.02 0.02 0.02 0.03 0.03
0.00 0.00 0.00 0.00 0.00 0.00 0.00 0.00 0.00 0.00 0.00 0.01 0.01 0.00 0.00 0.00 0.00 0.00 0.00 0.00 0.00 0.01 0.01 0.01 0.02 0.02 0.01 0.01 0.00 0.00 0.00 0.00 0.01 0.01 0.01 0.01 0.01 0.01 0.01 0.01 0.01 0.02 0.02 0.03
0.00 0.00 0.00 0.00 0.00 0.00 0.00 0.00 0.00 0.00 0.00 0.00 0.00 0.00 0.00 0.00 0.00 0.00 0.00 0.00 0.00 0.01 0.01 0.01 0.01 0.01 0.00 0.01 0.01 0.00 0.00 0.00 0.01 0.01 0.01 0.01 0.01 0.01 0.01 0.01 0.01 0.01 0.02 0.03
0.00 0.00 0.00 0.00 0.00 0.00 0.00 0.00 0.00 0.00 0.00 0.00 0.01 0.00 0.00 0.00 0.00 0.00 0.00 0.00 0.01 0.01 0.01 0.01 0.01 0.01 0.01 0.01 0.01 0.01 0.00 0.00 0.01 0.00 0.01 0.01 0.01 0.01 0.01 0.01 0.01 0.01 0.02 0.02
0.00 0.00 0.00 0.00 0.00 0.00 0.00 0.00 0.00 0.00 0.00 0.00 0.00 0.00 0.00 0.00 0.00 0.00 0.00 0.00 0.01 0.01 0.01 0.01 0.01 0.01 0.01 0.01 0.01 0.01 0.01 0.00 0.01 0.01 0.01 0.02 0.01 0.01 0.01 0.01 0.01 0.02 0.03 0.03
0.00 0.00 0.00 0.00 0.00 0.00 0.00 0.00 0.00 0.00 0.00 0.00 0.00 0.00 0.00 0.00 0.00 0.00 0.00 0.00 0.00 0.00 0.00 0.01 0.01 0.01 0.01 0.01 0.01 0.01 0.02 0.02 0.02 0.02 0.02 0.02 0.02 0.02 0.01 0.01 0.01 0.02 0.03 0.04
0.00 0.00 0.00 0.00 0.00 0.00 0.00 0.00 0.00 0.00 0.00 0.01 0.01 0.00 0.00 0.00 0.01 0.01 0.00 0.00 0.00 0.00 0.00 0.01 0.01 0.01 0.01 0.01 0.01 0.01 0.03 0.03 0.02 0.02 0.02 0.02 0.02 0.02 0.01 0.01 0.01 0.02 0.03 0.04
0.00 0.00 0.00 0.00 0.00 0.00 0.00 0.00 0.00 0.00 0.00 0.01 0.01 0.01 0.00 0.01 0.00 0.00 0.00 0.00 0.00 0.00 0.01 0.01 0.01 0.01 0.01 0.01 0.01 0.01 0.02 0.03 0.02 0.02 0.01 0.02 0.02 0.02 0.02 0.02 0.02 0.02 0.03 0.03
0.00 0.00 0.00 0.00 0.00 0.00 0.00 0.00 0.00 0.00 0.00 0.00 0.00 0.00 0.00 0.01 0.01 0.01 0.00 0.00 0.00 0.00 0.00 0.01 0.01 0.01 0.00 0.00 0.00 0.01 0.01 0.02 0.02 0.01 0.01 0.01 0.01 0.02 0.02 0.02 0.03 0.04 0.03 0.03
0.00 0.00 0.00 0.00 0.00 0.00 0.00 0.00 0.00 0.00 0.00 0.00 0.00 0.00 0.00 0.01 0.01 0.01 0.00 0.00 0.00 0.00 0.01 0.01 0.01 0.01 0.01 0.00 0.00 0.00 0.00 0.00 0.01 0.01 0.01 0.02 0.02 0.03 0.03 0.03 0.04 0.05 0.04 0.04
0.00 0.00 0.00 0.00 0.00 0.00 0.00 0.00 0.00 0.00 0.00 0.00 0.00 0.00 0.00 0.01 0.01 0.00 0.00 0.00 0.00 0.00 0.01 0.01 0.01 0.01 0.01 0.01 0.01 0.00 0.01 0.01 0.01 0.00 0.01 0.02 0.04 0.05 0.06 0.07 0.07 0.06 0.04 0.04
0.00 0.00 0.00 0.00 0.00 0.00 0.00 0.00 0.00 0.00 0.01 0.00 0.00 0.00 0.00 0.00 0.00 0.00 0.00 0.01 0.01 0.01 0.01 0.01 0.01 0.01 0.01 0.01 0.01 0.01 0.01 0.01 0.01 0.00 0.01 0.01 0.03 0.03 0.05 0.07 0.06 0.05 0.05 0.04
0.00 0.00 0.00 0.00 0.00 0.00 0.00 0.00 0.01 0.01 0.00 0.00 0.00 0.00 0.01 0.01 0.00 0.01 0.01 0.02 0.02 0.02 0.01 0.01 0.02 0.02 0.02 0.01 0.01 0.00 0.00 0.01 0.01 0.01 0.01 0.01 0.01 0.01 0.02 0.04 0.04 0.04 0.04 0.03
0.00 0.00 0.00 0.00 0.00 0.00 0.00 0.00 0.00 0.00 0.01 0.00 0.01 0.01 0.01 0.01 0.01 0.01 0.01 0.02 0.02 0.01 0.01 0.01 0.02 0.03 0.03 0.01 0.01 0.01 0.01 0.01 0.01 0.01 0.01 0.01 0.01 0.01 0.01 0.02 0.02 0.02 0.02 0.01
0.00 0.00 0.00 0.00 0.00 0.00 0.00 0.00 0.01 0.01 0.01 0.01 0.01 0.01 0.01 0.01 0.01 0.01 0.01 0.01 0.01 0.01 0.01 0.01 0.02 0.03 0.06 0.03 0.01 0.02 0.01 0.01 0.01 0.01 0.01 0.01 0.02 0.02 0.02 0.03 0.03 0.03 0.03 0.02
0.00 0.00 0.00 0.00 0.01 0.01 0.01 0.01 0.01 0.01 0.01 0.00 0.01 0.01 0.01 0.01 0.00 0.00 0.01 0.01 0.01 0.01 0.01 0.01 0.02 0.03 0.07 0.07 0.03 0.02 0.02 0.01 0.01 0.01 0.01 0.02 0.03 0.04 0.04 0.03 0.03 0.03 0.02 0.02
0.00 0.00 0.00 0.01 0.00 0.01 0.01 0.01 0.01 0.01 0.01 0.01 0.01 0.01 0.01 0.00 0.00 0.00 0.01 0.01 0.01 0.01 0.01 0.01 0.02 0.02 0.05 0.07 0.05 0.04 0.02 0.02 0.02 0.01 0.01 0.02 0.03 0.04 0.03 0.03 0.03 0.02 0.01 0.01
MSLP
1011.07 1011.56 1011.90 1012.08 1012.14 1012.11 1012.03 1011.96 1011.91 1011.89 1011.88 1011.86 1011.83 1011.77 1011.70 1011.66 1011.68 1011.78 1011.98 1012.26 1012.59 1012.91 1013.17 1013.29 1013.25 1013.05 1012.69 1012.22 1011.69 1011.18 1010.73 1010.36 1010.08 1009.88 1009.72 1009.57 1009.40 1009.17 1008.88 1008.53 1008.13 1007.71 1007.29 1006.89
1011.38 1011.79 1012.05 1012.16 1012.17 1012.10 1012.03 1011.98 1011.98 1012.01 1012.05 1012.08 1012.07 1012.01 1011.91 1011.81 1011.76 1011.79 1011.94 1012.19 1012.54 1012.91 1013.25 1013.48 1013.56 1013.46 1013.18 1012.77 1012.27 1011.75 1011.26 1010.85 1010.54 1010.32 1010.16 1010.03 1009.88 1009.70 1009.46 1009.17 1008.83 1008.47 1008.11 1007.78
1011.49 1011.79 1011.97 1012.03 1012.00 1011.95 1011.91 1011.93 1012.01 1012.13 1012.24 1012.31 1012.32 1012.24 1012.09 1011.93 1011.79 1011.73 1011.81 1012.03 1012.36 1012.77 1013.18 1013.51 1013.71 1013.73 1013.56 1013.23 1012.80 1012.31 1011.83 1011.41 1011.08 1010.83 1010.64 1010.49 1010.34 1010.15 1009.93 1009.66 1009.36 1009.05 1008.75 1008.48
1011.38 1011.59 1011.69 1011.70 1011.68 1011.67 1011.73 1011.85 1012.04 1012.26 1012.45 1012.58 1012.59 1012.49 1012.28 1012.02 1011.78 1011.63 1011.61 1011.76 1012.07 1012.49 1012.95 1013.37 1013.67 1013.82 1013.78 1013.57 1013.23 1012.82 1012.39 1012.00 1011.67 1011.41 1011.19 1011.01 1010.83 1010.62 1010.38 1010.10 1009.81 1009.51 1009.24 1009.01
1011.13 1011.23 1011.27 1011.27 1011.28 1011.35 1011.52 1011.77 1012.09 1012.43 1012.72 1012.89 1012.91 1012.77 1012.48 1012.12 1011.76 1011.49 1011.37 1011.44 1011.70 1012.11 1012.59 1013.08 1013.48 1013.74 1013.82 1013.74 1013.52 1013.22 1012.87 1012.54 1012.25 1012.00 1011.79 1011.59 1011.37 1011.13 1010.85 1010.55 1010.23 1009.93 1009.66 1009.45
1010.82 1010.83 1010.82 1010.83 1010.90 1011.07 1011.36 1011.76 1012.21 1012.67 1013.03 1013.24 1013.25 1013.06 1012.69 1012.23 1011.75 1011.35 1011.13 1011.11 1011.30 1011.67 1012.16 1012.68 1013.15 1013.50 1013.70 1013.74 1013.64 1013.45 1013.21 1012.96 1012.73 1012.53 1012.34 1012.15 1011.93 1011.66 1011.36 1011.02 1010.68 1010.35 1010.08 1009.85
1010.57 1010.52 1010.48 1010.50 1010.63 1010.89 1011.30 1011.82 1012.39 1012.94 1013.36 1013.59 1013.58 1013.34 1012.89 1012.32 1011.73 1011.23 1010.90 1010.79 1010.91 1011.24 1011.71 1012.24 1012.75 1013.16 1013.44 1013.58 1013.59 1013.50 1013.37 1013.21 1013.06 1012.93 1012.79 1012.62 1012.42 1012.16 1011.84 1011.49 1011.13 1010.79 1010.49 1010.26
1010.47 1010.37 1010.31 1010.35 1010.53 1010.87 1011.36 1011.97 1012.61 1013.21 1013.66 1013.89 1013.85 1013.55 1013.03 1012.38 1011.71 1011.11 1010.70 1010.51 1010.58 1010.86 1011.30 1011.82 1012.33 1012.77 1013.10 1013.29 1013.38 1013.38 1013.33 1013.26 1013.19 1013.12 1013.03 1012.92 1012.76 1012.53 1012.24 1011.90 1011.54 1011.19 1010.89 1010.65
1010.55 1010.42 1010.35 1010.41 1010.61 1010.98 1011.51 1012.16 1012.83 1013.43 1013.87 1014.07 1013.99 1013.64 1013.07 1012.36 1011.63 1010.99 1010.53 1010.29 1010.31 1010.55 1010.96 1011.45 1011.94 1012.38 1012.72 1012.95 1013.07 1013.12 1013.12 1013.10 1013.09 1013.08 1013.06 1013.01 1012.89 1012.71 1012.47 1012.16 1011.83 1011.50 1011.20 1010.96
1010.78 1010.65 1010.58 1010.63 1010.83 1011.20 1011.72 1012.33 1012.97 1013.53 1013.92 1014.07 1013.94 1013.55 1012.95 1012.23 1011.49 1010.84 1010.36 1010.12 1010.11 1010.33 1010.70 1011.16 1011.63 1012.04 1012.37 1012.59 1012.71 1012.77 1012.79 1012.81 1012.83 1012.86 1012.88 1012.87 1012.81 1012.69 1012.49 1012.23 1011.95 1011.65 1011.37 1011.14
1011.10 1010.99 1010.92 1010.95 1011.12 1011.44 1011.90 1012.44 1012.99 1013.47 1013.77 1013.86 1013.70 1013.29 1012.70 1011.99 1011.29 1010.67 1010.23 1010.00 1010.00 1010.19 1010.54 1010.97 1011.40 1011.78 1012.07 1012.27 1012.38 1012.43 1012.45 1012.46 1012.48 1012.52 1012.55 1012.57 1012.55 1012.47 1012.32 1012.11 1011.87 1011.61 1011.36 1011.15
1011.43 1011.34 1011.27 1011.28 1011.40 1011.65 1012.01 1012.43 1012.87 1013.23 1013.46 1013.48 1013.29 1012.89 1012.34 1011.70 1011.07 1010.52 1010.14 1009.95 1009.97 1010.16 1010.49 1010.88 1011.27 1011.61 1011.86 1012.03 1012.12 1012.15 1012.15 1012.15 1012.15 1012.18 1012.21 1012.22 1012.21 1012.14 1012.02 1011.85 1011.64 1011.41 1011.19 1010.98
1011.71 1011.65 1011.58 1011.55 1011.61 1011.77 1012.01 1012.31 1012.62 1012.87 1013.01 1012.99 1012.80 1012.44 1011.96 1011.42 1010.89 1010.45 1010.14 1010.01 1010.05 1010.24 1010.54 1010.89 1011.24 1011.53 1011.76 1011.90 1011.97 1011.99 1011.97 1011.95 1011.93 1011.93 1011.93 1011.92 1011.88 1011.81 1011.69 1011.53 1011.33 1011.11 1010.89 1010.68
1011.92 1011.87 1011.81 1011.75 1011.75 1011.81 1011.94 1012.11 1012.30 1012.45 1012.53 1012.49 1012.32 1012.03 1011.66 1011.24 1010.84 1010.51 1010.29 1010.22 1010.27 1010.45 1010.71 1011.01 1011.31 1011.56 1011.75 1011.88 1011.94 1011.96 1011.94 1011.91 1011.87 1011.84 1011.79 1011.74 1011.66 1011.55 1011.39 1011.21 1010.99 1010.77 1010.53 1010.30
1012.09 1012.05 1011.98 1011.89 1011.83 1011.81 1011.83 1011.90 1011.98 1012.05 1012.09 1012.05 1011.94 1011.75 1011.51 1011.24 1010.97 1010.76 1010.63 1010.59 1010.65 1010.79 1011.00 1011.23 1011.46 1011.67 1011.83 1011.95 1012.02 1012.05 1012.04 1012.02 1011.97 1011.91 1011.83 1011.72 1011.58 1011.40 1011.19 1010.95 1010.70 1010.43 1010.15 1009.89
1012.27 1012.23 1012.15 1012.04 1011.92 1011.82 1011.75 1011.73 1011.73 1011.75 1011.77 1011.77 1011.74 1011.67 1011.56 1011.44 1011.31 1011.22 1011.15 1011.14 1011.18 1011.27 1011.39 1011.54 1011.70 1011.84 1011.97 1012.08 1012.17 1012.22 1012.25 1012.24 1012.21 1012.13 1012.01 1011.83 1011.62 1011.37 1011.09 1010.78 1010.46 1010.13 1009.81 1009.49
1012.53 1012.49 1012.39 1012.23 1012.07 1011.90 1011.75 1011.65 1011.60 1011.59 1011.61 1011.66 1011.71 1011.77 1011.81 1011.83 1011.83 1011.83 1011.83 1011.82 1011.82 1011.83 1011.87 1011.91 1011.97 1012.05 1012.15 1012.24 1012.34 1012.43 1012.49 1012.52 1012.49 1012.41 1012.25 1012.03 1011.75 1011.42 1011.05 1010.66 1010.27 1009.88 1009.51 1009.14
1012.92 1012.85 1012.72 1012.53 1012.31 1012.08 1011.87 1011.71 1011.61 1011.57 1011.61 1011.71 1011.85 1012.02 1012.19 1012.34 1012.46 1012.53 1012.56 1012.55 1012.51 1012.44 1012.37 1012.31 1012.27 1012.28 1012.32 1012.41 1012.51 1012.63 1012.73 1012.79 1012.78 1012.69 1012.51 1012.24 1011.89 1011.49 1011.04 1010.58 1010.12 1009.67 1009.25 1008.84
1013.42 1013.33 1013.16 1012.93 1012.65 1012.37 1012.09 1011.87 1011.73 1011.68 1011.73 1011.87 1012.08 1012.34 1012.61 1012.87 1013.07 1013.21 1013.27 1013.25 1013.15 1013.01 1012.84 1012.69 1012.56 1012.49 1012.49 1012.55 1012.66 1012.80 1012.92 1013.00 1013.00 1012.91 1012.71 1012.40 1012.00 1011.53 1011.02 1010.50 1009.99 1009.50 1009.05 1008.62
1013.99 1013.86 1013.65 1013.37 1013.05 1012.71 1012.38 1012.11 1011.93 1011.86 1011.91 1012.07 1012.33 1012.65 1013.00 1013.33 1013.60 1013.78 1013.86 1013.82 1013.69 1013.49 1013.25 1013.01 1012.82 1012.69 1012.65 1012.69 1012.80 1012.94 1013.07 1013.16 1013.17 1013.06 1012.84 1012.50 1012.05 1011.54 1010.98 1010.42 1009.88 1009.38 1008.92 1008.50
1014.55 1014.37 1014.13 1013.81 1013.44 1013.06 1012.69 1012.38 1012.17 1012.07 1012.11 1012.29 1012.56 1012.91 1013.30 1013.67 1013.97 1014.18 1014.27 1014.23 1014.08 1013.84 1013.56 1013.29 1013.05 1012.89 1012.82 1012.85 1012.94 1013.07 1013.21 1013.29 1013.28 1013.16 1012.91 1012.54 1012.07 1011.52 1010.94 1010.37 1009.83 1009.33 1008.90 1008.51
1014.98 1014.78 1014.51 1014.16 1013.77 1013.36 1012.97 1012.65 1012.42 1012.31 1012.33 1012.49 1012.76 1013.11 1013.50 1013.87 1014.19 1014.40 1014.49 1014.46 1014.31 1014.07 1013.79 1013.50 1013.26 1013.10 1013.02 1013.03 1013.12 1013.24 1013.35 1013.41 1013.39 1013.24 1012.96 1012.57 1012.07 1011.51 1010.93 1010.37 1009.85 1009.39 1009.00 1008.66
1015.24 1015.03 1014.73 1014.39 1014.00 1013.60 1013.22 1012.90 1012.67 1012.55 1012.57 1012.71 1012.95 1013.27 1013.63 1013.98 1014.27 1014.48 1014.57 1014.54 1014.41 1014.19 1013.94 1013.68 1013.47 1013.33 1013.26 1013.28 1013.35 1013.46 1013.55 1013.58 1013.51 1013.33 1013.02 1012.61 1012.10 1011.55 1010.98 1010.45 1009.97 1009.57 1009.24 1008.96
1015.31 1015.09 1014.81 1014.48 1014.12 1013.76 1013.42 1013.14 1012.94 1012.84 1012.85 1012.97 1013.18 1013.45 1013.76 1014.06 1014.31 1014.48 1014.56 1014.54 1014.43 1014.26 1014.05 1013.85 1013.69 1013.59 1013.56 1013.59 1013.65 1013.74 1013.79 1013.78 1013.67 1013.45 1013.12 1012.68 1012.18 1011.64 1011.11 1010.61 1010.19 1009.85 1009.59 1009.38
1015.23 1015.01 1014.75 1014.47 1014.17 1013.87 1013.61 1013.39 1013.25 1013.18 1013.20 1013.30 1013.47 1013.69 1013.93 1014.15 1014.34 1014.47 1014.53 1014.51 1014.43 1014.31 1014.17 1014.03 1013.93 1013.89 1013.89 1013.93 1013.99 1014.05 1014.07 1014.01 1013.85 1013.60 1013.24 1012.79 1012.29 1011.78 1011.28 1010.85 1010.48 1010.21 1010.01 1009.86
1015.07 1014.86 1014.64 1014.41 1014.18 1013.97 1013.80 1013.67 1013.60 1013.58 1013.63 1013.72 1013.85 1014.01 1014.17 1014.31 1014.43 1014.51 1014.53 1014.51 1014.45 1014.37 1014.28 1014.22 1014.19 1014.19 1014.22 1014.28 1014.33 1014.36 1014.33 1014.23 1014.03 1013.73 1013.35 1012.91 1012.42 1011.94 1011.49 1011.11 1010.80 1010.58 1010.43 1010.33
Thickness
5834 5827 5822 5827 5831 5830 5827 5822 5818 5824 5834 5827 5820 5817 5820 5822 5819 5816 5814 5813 5809 5807 5808 5806 5804 5801 5798 5794 5790 5787 5783 5781 5779 5778 5776 5774 5773 5772 5771 5770 5767 5767 5765 5765
5823 5821 5833 5837 5834 5829 5826 5820 5820 5825 5831 5825 5819 5817 5823 5822 5818 5818 5816 5813 5811 5808 5805 5802 5801 5799 5796 5791 5788 5786 5783 5781 5779 5777 5775 5774 5772 5772 5770 5768 5766 5765 5764 5763
5818 5830 5838 5831 5828 5824 5825 5822 5821 5820 5825 5827 5818 5811 5818 5821 5822 5819 5818 5817 5815 5809 5804 5801 5799 5797 5795 5791 5788 5786 5783 5780 5777 5776 5775 5774 5771 5770 5769 5766 5764 5763 5761 5761
5825 5835 5832 5828 5827 5827 5820 5832 5827 5821 5815 5816 5816 5801 5813 5819 5816 5815 5815 5815 5813 5811 5808 5805 5801 5797 5795 5792 5790 5785 5781 5779 5776 5775 5773 5770 5767 5765 5765 5764 5763 5761 5759 5758
5823 5831 5827 5823 5829 5830 5827 5834 5829 5824 5818 5815 5815 5806 5812 5819 5810 5812 5815 5815 5814 5812 5809 5805 5802 5798 5796 5794 5790 5786 5781 5777 5775 5773 5771 5768 5767 5766 5765 5763 5760 5758 5757 5756
5830 5839 5835 5832 5837 5836 5832 5828 5825 5824 5821 5799 5810 5805 5804 5817 5812 5813 5816 5815 5813 5812 5809 5806 5803 5799 5796 5793 5789 5786 5780 5776 5774 5771 5769 5766 5763 5762 5760 5758 5756 5755 5755 5753
5819 5829 5837 5839 5828 5830 5828 5817 5803 5798 5799 5800 5814 5806 5806 5817 5820 5817 5814 5814 5813 5811 5808 5803 5800 5796 5793 5791 5788 5785 5779 5774 5772 5770 5767 5765 5762 5760 5757 5755 5754 5752 5752 5750
5807 5810 5829 5834 5828 5822 5824 5820 5797 5784 5790 5804 5808 5802 5813 5821 5822 5821 5818 5815 5812 5809 5806 5802 5799 5795 5793 5790 5787 5783 5778 5773 5771 5768 5765 5763 5761 5759 5757 5753 5751 5749 5749 5747
5812 5812 5831 5834 5835 5830 5819 5819 5827 5811 5804 5797 5804 5809 5812 5819 5814 5814 5813 5810 5808 5806 5805 5802 5799 5796 5793 5789 5785 5782 5776 5771 5769 5766 5763 5760 5757 5755 5752 5749 5748 5747 5744 5744
5821 5806 5822 5829 5830 5827 5827 5826 5816 5805 5784 5781 5795 5801 5805 5804 5805 5808 5807 5806 5805 5804 5802 5800 5798 5795 5793 5790 5785 5780 5775 5770 5767 5764 5761 5758 5753 5750 5748 5746 5742 5741 5739 5738
5824 5808 5812 5818 5813 5813 5813 5813 5809 5808 5803 5785 5782 5797 5816 5810 5810 5807 5806 5805 5803 5801 5799 5797 5795 5793 5791 5788 5783 5777 5772 5768 5764 5761 5757 5753 5749 5747 5744 5741 5739 5737 5735 5733
5818 5813 5805 5812 5824 5825 5819 5815 5810 5793 5788 5793 5789 5796 5820 5817 5815 5810 5805 5803 5801 5799 5797 5794 5791 5789 5785 5782 5779 5774 5770 5765 5761 5757 5753 5749 5746 5743 5740 5737 5734 5731 5729 5727
5811 5803 5787 5794 5805 5812 5809 5811 5812 5810 5802 5793 5785 5793 5814 5814 5810 5808 5803 5799 5795 5793 5791 5788 5785 5781 5778 5775 5772 5769 5765 5761 5758 5755 5750 5746 5742 5738 5734 5731 5729 5726 5723 5721
5809 5802 5792 5785 5795 5805 5800 5803 5805 5803 5793 5791 5793 5796 5801 5802 5800 5800 5798 5794 5791 5788 5785 5783 5779 5775 5772 5769 5765 5762 5760 5758 5755 5751 5746 5741 5738 5734 5730 5727 5724 5721 5718 5715
5804 5792 5795 5800 5804 5803 5800 5799 5800 5795 5796 5791 5794 5796 5799 5799 5798 5796 5794 5790 5784 5780 5778 5775 5772 5768 5765 5762 5759 5758 5755 5752 5750 5746 5742 5737 5733 5730 5726 5723 5719 5716 5712 5710
5794 5784 5786 5785 5796 5796 5792 5797 5798 5794 5795 5794 5793 5792 5802 5799 5796 5789 5786 5782 5777 5774 5771 5769 5766 5762 5759 5756 5754 5752 5750 5746 5743 5739 5735 5731 5727 5724 5721 5718 5714 5710 5706 5703
5784 5777 5771 5775 5787 5783 5777 5793 5793 5793 5794 5791 5786 5790 5793 5786 5783 5780 5778 5776 5772 5769 5766 5763 5760 5758 5755 5753 5750 5747 5745 5741 5736 5733 5729 5725 5721 5718 5715 5713 5709 5705 5700 5697
5771 5768 5770 5771 5766 5750 5783 5799 5796 5789 5789 5792 5788 5787 5785 5781 5780 5779 5777 5772 5768 5765 5761 5759 5756 5754 5752 5750 5747 5743 5740 5735 5731 5727 5723 5719 5716 5712 5709 5706 5702 5698 5695 5691
5774 5762 5761 5761 5757 5764 5778 5785 5785 5777 5775 5784 5781 5779 5778 5778 5773 5770 5772 5769 5764 5761 5758 5754 5752 5750 5747 5744 5741 5736 5733 5729 5724 5720 5716 5713 5710 5706 5702 5699 5695 5692 5688 5685
5764 5760 5755 5752 5744 5746 5767 5780 5784 5774 5761 5775 5774 5770 5769 5767 5758 5759 5764 5762 5759 5755 5752 5748 5745 5742 5738 5736 5734 5729 5725 5721 5716 5713 5710 5706 5703 5699 5695 5692 5689 5685 5682 5679
5745 5744 5744 5745 5743 5756 5766 5772 5771 5749 5751 5765 5766 5764 5762 5756 5755 5757 5756 5752 5749 5746 5744 5741 5737 5733 5730 5729 5726 5721 5717 5714 5711 5707 5703 5699 5696 5692 5689 5685 5681 5678 5676 5673
5739 5739 5737 5739 5734 5741 5758 5760 5752 5749 5756 5757 5756 5756 5753 5750 5749 5748 5745 5742 5740 5737 5735 5733 5728 5725 5723 5721 5717 5713 5709 5708 5704 5700 5696 5692 5689 5687 5684 5678 5675 5672 5669 5667
5735 5738 5741 5739 5738 5743 5751 5749 5750 5752 5747 5747 5747 5747 5744 5741 5739 5738 5736 5734 5732 5729 5726 5725 5721 5717 5715 5713 5710 5705 5702 5701 5697 5692 5688 5685 5682 5679 5676 5672 5668 5666 5664 5663
5727 5729 5728 5727 5733 5736 5739 5741 5742 5742 5740 5740 5740 5738 5737 5734 5733 5731 5729 5726 5724 5722 5719 5717 5713 5710 5707 5705 5703 5699 5696 5693 5690 5685 5681 5678 5675 5672 5669 5665 5664 5661 5659 5657
5715 5716 5716 5715 5721 5724 5727 5729 5730 5731 5731 5731 5731 5730 5729 5728 5726 5724 5721 5719 5717 5714 5713 5710 5706 5703 5701 5698 5696 5694 5690 5686 5683 5679 5676 5673 5670 5667 5662 5659 5656 5654 5650 5648
5708 5707 5706 5708 5713 5714 5715 5720 5721 5719 5718 5719 5719 5719 5721 5721 5717 5716 5713 5712 5710 5707 5705 5702 5699 5696 5694 5691 5689 5687 5684 5680 5676 5673 5670 5668 5665 5661 5658 5654 5651 5645 5642 5637